Weather Service Report


986 
ASUS44 KBMX 221510
RWRAL 
             
ALABAMA REGIONAL WEATHER ROUNDUP
NATIONAL WEATHER SERVICE BIRMINGHAM AL
1000 AM CDT SUN OCT 22 2017

NOTE: "FAIR" INDICATES FEW OR NO CLOUDS BELOW 12,000 FEET
WITH NO SIGNIFICANT WEATHER AND/OR OBSTRUCTIONS TO VISIBILITY.

THE REMARK "TC" DENOTES TEMPERATURE IN DEGREES CELSIUS.

ALZ001>011-014-016>018-020-221600-
NORTH ALABAMA
  
CITY           SKY/WX    TMP DP  RH WIND       PRES   REMARKS
MUSCLE SHOALS  MOSUNNY   73  62  68 SE16G26   30.11F                  
HUNTSVILLE     PTSUNNY   72  63  73 SE17      30.14F                  
DECATUR        SUNNY     72  63  73 SE20G25   30.14F                  
HALEYVILLE     PTSUNNY   69  65  86 SE14G21   30.14S                  
GADSDEN        PTSUNNY   71  65  81 E6        30.20F                  
$$
 
ALZ012-013-022-023-030>036-040>044-221600-
WEST CENTRAL ALABAMA
  
CITY           SKY/WX    TMP DP  RH WIND       PRES   REMARKS
TUSCALOOSA     CLOUDY    71  67  87 SE13G21   30.13S                  
DEMOPOLIS        N/A     69  64  82 E8        30.10F                  
$$
 
ALZ015-024>026-033>036-041>044-221600-
CENTRAL ALABAMA
  
CITY           SKY/WX    TMP DP  RH WIND       PRES   REMARKS
BIRMINGHAM     MOSUNNY   72  63  73 SE12G18   30.18S                  
MONTGOMERY     CLOUDY    74  64  71 SE12      30.16S                  
SHELBY CO ARPT CLOUDY    71  67  87 SE9G17    30.17S                  
MAXWELL AFB    MOSUNNY   74  65  75 SE14      30.15F                  
GREENVILLE     NOT AVBL                                               
SELMA          PTSUNNY   72  64  78 SE13      30.14S                  
PRATTVILLE     CLOUDY    72  66  82 E9        30.16S                  
BESSEMER       CLOUDY    69  65  86 SE8       30.17S                  
TALLADEGA      PTSUNNY   73  65  75 SE12      30.19S                  
PELL CITY      CLOUDY    70  66  88 CALM      30.19S                  
MARION         NOT AVBL                                               
SYLACAUGA      PTSUNNY   74  67  78 SE16      30.18S                  
$$
 
ALZ019-021-028-029-037-038-045>048-221600-
EAST CENTRAL ALABAMA
  
CITY           SKY/WX    TMP DP  RH WIND       PRES   REMARKS
ANNISTON       MOSUNNY   72  64  76 VRB3      30.20F                  
ALEXANDER CITY CLOUDY    71  64  81 SE6       30.20R                  
AUBURN         PTSUNNY   72  66  81 SE8       30.21F                  
$$
 
ALZ051>064-221600-
SOUTHWEST ALABAMA
  
CITY           SKY/WX    TMP DP  RH WIND       PRES   REMARKS
MOBILE         CLOUDY    71  68  90 NE5       30.08S                  
BROOKLEY FIELD CLOUDY    75  73  93 E13       30.08F                  
EVERGREEN      PTSUNNY   73  67  81 E9        30.13F                  
$$

ALZ049-050-065>069-221600-
SOUTHEAST ALABAMA
  
CITY           SKY/WX    TMP DP  RH WIND       PRES   REMARKS
DOTHAN         PTSUNNY   77  70  79 SE14G20   30.20S                  
OZARK          MOSUNNY   76  67  72 E8        30.15F                  
TROY           CLOUDY    74  68  81 SE10      30.17F                  
EUFAULA        FAIR      79  68  69 E12       30.17F                  
$$
  

Return to Home page


Western Regional Climate Center, wrcc@dri.edu